User: anonymous   Login
Location: Sungai Laei
(2.6000°N, 113.7167°E)
Time: 15:56:22
(UTC+00:00)
Language:

Meteor 2-20 - Orbit

View from above orbital plane
View from above orbital plane
View from above satellite
View from above satellite

Ground track
Ground track

The orbit data is extracted from the following two-line orbital elements,

1 20826U 90086A   22229.10015497  .00000025  00000-0  91571-5 0  9990
2 20826  82.5221 233.3484 0013175   0.5877 359.5296 13.84275223610790
Epoch (UTC): 17 August 2022 02:24:13
Eccentricity: 0.0013175
inclination: 82.5221°
perigee height: 939 km
apogee height: 958 km
right ascension of ascending node: 233.3484°
argument of perigee: 0.5877°
revolutions per day: 13.84275223
mean anomaly at epoch: 359.5296°
orbit number at epoch: 61079

The dashed part of the orbit path shows where the satellite is in the earth's shadow,  

DLR